Time,TemperatureF,DewpointF,PressureIn,WindDirection,WindDirectionDegrees,WindSpeedMPH,WindSpeedGustMPH,Humidity,HourlyPrecipIn,Conditions,Clouds,dailyrainin,SoftwareType,DateUTC
2013-01-28 07:41:00,32.7,27.2,29.09,West,270,0.0,0.0,80,0.00,,BKN100,0.00,VWS V14.01,2013-01-28 12:41:00,
2013-01-28 07:42:00,32.7,27.2,29.09,West,270,0.0,0.0,80,0.00,,BKN100,0.00,VWS V14.01,2013-01-28 12:42:00,
2013-01-28 07:47:00,32.7,27.2,29.09,West,270,0.0,0.0,80,0.00,,BKN100,0.00,VWS V14.01,2013-01-28 12:47:00,
2013-01-28 07:52:00,32.7,27.2,29.09,West,270,0.0,0.0,80,0.00,,BKN100,0.00,VWS V14.01,2013-01-28 12:52:00,
2013-01-28 07:57:00,32.7,27.2,29.09,West,270,0.0,0.0,80,0.00,,BKN100,0.00,VWS V14.01,2013-01-28 12:57:00,
2013-01-28 08:02:00,32.9,27.4,29.09,West,270,0.0,0.0,80,0.00,,,0.00,VWS V14.01,2013-01-28 13:02:00,
2013-01-28 08:07:00,32.9,27.4,29.09,West,270,0.0,0.0,80,0.00,,,0.00,VWS V14.01,2013-01-28 13:07:00,
2013-01-28 08:12:00,32.9,27.4,29.09,West,270,0.0,0.0,80,0.00,,,0.00,VWS V14.01,2013-01-28 13:12:00,
2013-01-28 08:17:00,32.9,27.4,29.09,West,270,0.0,0.0,80,0.00,,,0.00,VWS V14.01,2013-01-28 13:17:00,
2013-01-28 08:22:00,32.9,27.4,29.09,West,270,0.0,0.0,80,0.00,,,0.00,VWS V14.01,2013-01-28 13:22:00,
2013-01-28 08:28:00,33.1,27.6,29.09,West,270,0.0,0.0,80,0.00,,,0.00,VWS V14.01,2013-01-28 13:28:00,
2013-01-28 08:33:00,33.1,27.6,29.09,West,270,0.0,0.0,80,0.00,,,0.00,VWS V14.01,2013-01-28 13:33:00,
2013-01-28 08:38:00,33.3,28.1,29.09,West,270,0.0,0.0,81,0.00,,,0.00,VWS V14.01,2013-01-28 13:38:00,
2013-01-28 08:43:00,33.3,28.1,29.09,West,270,0.0,0.0,81,0.00,,,0.00,VWS V14.01,2013-01-28 13:43:00,
2013-01-28 08:48:00,33.6,28.4,29.09,West,270,0.0,0.0,81,0.00,,,0.00,VWS V14.01,2013-01-28 13:48:00,
2013-01-28 08:53:00,33.6,28.4,29.09,West,270,0.0,0.0,81,0.00,,,0.00,VWS V14.01,2013-01-28 13:53:00,
2013-01-28 08:58:00,33.6,27.8,29.09,West,270,0.0,0.0,79,0.00,,,0.00,VWS V14.01,2013-01-28 13:58:00,
2013-01-28 09:03:00,33.8,27.7,29.09,West,270,0.0,0.0,78,0.00,,,0.00,VWS V14.01,2013-01-28 14:03:00,
2013-01-28 09:08:00,34.0,27.9,29.09,West,270,0.0,0.0,78,0.00,,,0.00,VWS V14.01,2013-01-28 14:08:00,
2013-01-28 09:13:00,34.2,27.7,29.09,West,270,0.0,0.0,77,0.00,,,0.00,VWS V14.01,2013-01-28 14:13:00,
2013-01-28 09:18:00,34.3,27.9,29.06,West,270,0.0,0.0,77,0.00,,,0.00,VWS V14.01,2013-01-28 14:18:00,
2013-01-28 09:23:00,34.5,27.8,29.06,West,270,0.0,0.0,76,0.00,,,0.00,VWS V14.01,2013-01-28 14:23:00,
2013-01-28 09:28:00,34.7,27.3,29.06,West,270,0.0,0.0,74,0.00,,,0.00,VWS V14.01,2013-01-28 14:28:00,
2013-01-28 09:34:00,35.1,27.3,29.06,West,270,0.0,0.0,73,0.00,,,0.00,VWS V14.01,2013-01-28 14:34:00,
2013-01-28 09:39:00,35.4,27.0,29.06,NE,39,2.7,2.7,71,0.00,,,0.00,VWS V14.01,2013-01-28 14:39:00,
2013-01-28 09:44:00,35.6,26.1,29.06,ENE,61,2.2,2.2,68,0.00,,,0.00,VWS V14.01,2013-01-28 14:44:00,
2013-01-28 09:49:00,35.8,25.9,29.06,ENE,76,0.0,3.1,67,0.00,,,0.00,VWS V14.01,2013-01-28 14:49:00,
2013-01-28 09:54:00,36.0,25.7,29.06,East,85,0.0,0.0,66,0.00,,,0.00,VWS V14.01,2013-01-28 14:54:00,
2013-01-28 09:59:00,36.3,27.1,29.06,East,82,0.0,0.0,69,0.00,,,0.00,VWS V14.01,2013-01-28 14:59:00,
2013-01-28 10:04:00,36.5,27.0,29.06,East,82,0.0,0.0,68,0.00,,,0.00,VWS V14.01,2013-01-28 15:04:00,
2013-01-28 10:09:00,36.9,27.7,29.06,East,82,0.0,0.0,69,0.00,,,0.00,VWS V14.01,2013-01-28 15:09:00,
2013-01-28 10:14:00,37.2,27.6,29.06,East,82,0.0,0.0,68,0.00,,,0.00,VWS V14.01,2013-01-28 15:14:00,
2013-01-28 10:19:00,37.4,26.4,29.06,East,82,0.0,0.0,64,0.00,,,0.00,VWS V14.01,2013-01-28 15:19:00,
2013-01-28 10:24:00,37.4,25.6,29.06,ENE,75,2.7,2.7,62,0.00,,,0.00,VWS V14.01,2013-01-28 15:24:00,
2013-01-28 10:29:00,37.4,25.6,29.06,SSE,161,2.2,2.2,62,0.00,,,0.00,VWS V14.01,2013-01-28 15:29:00,
2013-01-28 10:34:00,37.9,26.5,29.06,South,185,2.2,4.5,63,0.00,,,0.00,VWS V14.01,2013-01-28 15:34:00,
2013-01-28 10:39:00,39.0,28.6,29.06,SSW,203,3.1,3.6,66,0.00,,,0.00,VWS V14.01,2013-01-28 15:39:00,
2013-01-28 10:44:00,40.1,28.5,29.06,South,176,5.4,5.4,63,0.00,,,0.00,VWS V14.01,2013-01-28 15:44:00,
2013-01-28 10:49:00,39.9,27.2,29.06,SSW,212,3.6,4.0,60,0.00,,,0.00,VWS V14.01,2013-01-28 15:49:00,
2013-01-28 10:54:00,39.6,26.0,29.06,SSE,148,2.7,2.7,58,0.00,,,0.00,VWS V14.01,2013-01-28 15:54:00,
2013-01-28 10:59:00,39.7,26.6,29.06,SSW,205,4.0,4.0,59,0.00,,,0.00,VWS V14.01,2013-01-28 15:59:00,
2013-01-28 11:04:00,39.9,26.8,29.06,South,191,3.1,3.1,59,0.00,,,0.00,VWS V14.01,2013-01-28 16:04:00,
2013-01-28 11:09:00,39.7,25.3,29.06,South,182,3.6,3.6,56,0.00,,,0.00,VWS V14.01,2013-01-28 16:09:00,
2013-01-28 11:14:00,40.1,25.7,29.06,SSW,193,0.0,0.0,56,0.00,,,0.00,VWS V14.01,2013-01-28 16:14:00,
2013-01-28 11:19:00,40.5,26.9,29.03,South,182,2.7,2.7,58,0.00,,,0.00,VWS V14.01,2013-01-28 16:19:00,
2013-01-28 11:24:00,40.1,25.7,29.03,South,187,0.0,0.0,56,0.00,,,0.00,VWS V14.01,2013-01-28 16:24:00,
2013-01-28 11:29:00,40.3,26.7,29.03,SSW,201,3.1,3.6,58,0.00,,,0.00,VWS V14.01,2013-01-28 16:29:00,
2013-01-28 11:34:00,40.8,27.6,29.03,SW,215,0.0,3.1,59,0.00,,,0.00,VWS V14.01,2013-01-28 16:34:00,
2013-01-28 11:39:00,42.4,28.7,29.03,SE,145,2.7,2.7,58,0.00,,,0.00,VWS V14.01,2013-01-28 16:39:00,
2013-01-28 11:44:00,42.6,26.7,29.03,SE,134,0.0,2.2,53,0.00,,,0.00,VWS V14.01,2013-01-28 16:44:00,
2013-01-28 11:49:00,43.5,26.6,29.03,South,191,4.9,4.9,51,0.00,,,0.00,VWS V14.01,2013-01-28 16:49:00,
2013-01-28 11:54:00,43.5,26.6,29.03,South,188,3.1,3.1,51,0.00,,,0.00,VWS V14.01,2013-01-28 16:54:00,
2013-01-28 11:59:00,43.3,25.5,29.03,West,262,0.0,3.1,49,0.00,,,0.00,VWS V14.01,2013-01-28 16:59:00,
2013-01-28 12:04:00,44.2,27.3,29.03,SE,146,2.2,2.2,51,0.00,,,0.00,VWS V14.01,2013-01-28 17:04:00,
2013-01-28 12:09:00,45.5,28.0,29.03,South,188,0.0,0.0,50,0.00,,,0.00,VWS V14.01,2013-01-28 17:09:00,
2013-01-28 12:14:00,45.3,26.3,29.03,SSW,204,4.9,4.9,47,0.00,,,0.00,VWS V14.01,2013-01-28 17:14:00,
2013-01-28 12:19:00,45.1,26.6,29.00,SW,224,4.0,4.0,48,0.00,,,0.00,VWS V14.01,2013-01-28 17:19:00,
2013-01-28 12:24:00,44.8,26.3,29.00,South,184,0.0,0.0,48,0.00,,,0.00,VWS V14.01,2013-01-28 17:24:00,
2013-01-28 12:29:00,44.6,26.1,29.00,South,189,3.1,3.1,48,0.00,,,0.00,VWS V14.01,2013-01-28 17:29:00,
2013-01-28 12:34:00,44.8,26.3,29.00,SSW,207,0.0,2.7,48,0.00,,,0.00,VWS V14.01,2013-01-28 17:34:00,
2013-01-28 12:39:00,45.3,26.3,29.00,West,266,0.0,0.0,47,0.00,,,0.00,VWS V14.01,2013-01-28 17:39:00,
2013-01-28 12:44:00,46.2,27.6,29.00,South,171,2.2,2.2,48,0.00,,,0.00,VWS V14.01,2013-01-28 17:44:00,
2013-01-28 12:49:00,46.9,27.3,28.97,SE,133,2.7,2.7,46,0.00,,,0.00,VWS V14.01,2013-01-28 17:49:00,
2013-01-28 12:54:00,47.7,26.8,28.97,NNE,27,0.0,3.1,44,0.00,,,0.00,VWS V14.01,2013-01-28 17:54:00,
2013-01-28 13:00:00,48.4,26.4,28.97,East,89,3.1,3.1,42,0.00,,,0.00,VWS V14.01,2013-01-28 18:00:00,
2013-01-28 13:05:00,48.2,27.3,28.97,ENE,59,4.9,4.9,44,0.00,,,0.00,VWS V14.01,2013-01-28 18:05:00,
2013-01-28 13:10:00,48.6,28.2,28.97,East,92,0.0,2.7,45,0.00,,,0.00,VWS V14.01,2013-01-28 18:10:00,
2013-01-28 13:15:00,48.7,26.7,28.97,East,92,3.1,3.1,42,0.00,,,0.00,VWS V14.01,2013-01-28 18:15:00,
2013-01-28 13:20:00,48.9,27.4,28.97,East,92,3.1,4.0,43,0.00,,,0.00,VWS V14.01,2013-01-28 18:20:00,
2013-01-28 13:25:00,48.9,26.9,28.97,ENE,62,0.0,0.0,42,0.00,,,0.00,VWS V14.01,2013-01-28 18:25:00,
2013-01-28 13:30:00,49.3,27.2,28.97,South,170,0.0,0.0,42,0.00,,,0.00,VWS V14.01,2013-01-28 18:30:00,
2013-01-28 13:35:00,49.5,26.8,28.94,ESE,109,0.0,0.0,41,0.00,,,0.00,VWS V14.01,2013-01-28 18:35:00,
2013-01-28 13:40:00,50.7,27.9,28.94,South,179,2.7,2.7,41,0.00,,,0.00,VWS V14.01,2013-01-28 18:40:00,
2013-01-28 13:45:00,50.5,27.1,28.94,ENE,58,3.1,3.6,40,0.00,,,0.00,VWS V14.01,2013-01-28 18:45:00,
2013-01-28 13:50:00,50.4,27.6,28.94,NE,48,0.0,2.7,41,0.00,,,0.00,VWS V14.01,2013-01-28 18:50:00,
2013-01-28 13:56:00,51.1,27.6,28.94,NE,50,0.0,0.0,40,0.00,,,0.00,VWS V14.01,2013-01-28 18:56:00,
2013-01-28 14:01:00,50.9,26.8,28.94,NNE,31,0.0,0.0,39,0.00,,,0.00,VWS V14.01,2013-01-28 19:01:00,
2013-01-28 14:06:00,51.6,28.1,28.94,ESE,121,3.1,3.1,40,0.00,,CLR,0.00,VWS V14.01,2013-01-28 19:06:00,
2013-01-28 14:11:00,52.7,27.8,28.94,NE,51,3.1,3.1,38,0.00,,CLR,0.00,VWS V14.01,2013-01-28 19:11:00,
2013-01-28 14:16:00,53.4,28.5,28.91,WNW,295,3.1,3.1,38,0.00,,CLR,0.00,VWS V14.01,2013-01-28 19:16:00,
2013-01-28 14:21:00,53.6,28.0,28.91,NW,317,0.0,0.0,37,0.00,,CLR,0.00,VWS V14.01,2013-01-28 19:21:00,
2013-01-28 14:26:00,54.0,28.3,28.91,East,83,0.0,0.0,37,0.00,,CLR,0.00,VWS V14.01,2013-01-28 19:26:00,
2013-01-28 14:31:00,54.0,28.3,28.91,SE,127,0.0,0.0,37,0.00,,CLR,0.00,VWS V14.01,2013-01-28 19:31:00,
2013-01-28 14:36:00,53.6,27.3,28.91,NE,40,0.0,0.0,36,0.00,,CLR,0.00,VWS V14.01,2013-01-28 19:36:00,
2013-01-28 14:41:00,54.1,27.8,28.91,NNE,24,0.0,0.0,36,0.00,,CLR,0.00,VWS V14.01,2013-01-28 19:41:00,
2013-01-28 14:46:00,54.9,28.4,28.91,SW,217,0.0,0.0,36,0.00,,CLR,0.00,VWS V14.01,2013-01-28 19:46:00,
2013-01-28 14:52:00,54.9,28.4,28.91,WSW,256,0.0,0.0,36,0.00,,CLR,0.00,VWS V14.01,2013-01-28 19:52:00,
2013-01-28 14:57:00,54.7,28.3,28.91,NE,35,2.2,2.2,36,0.00,,CLR,0.00,VWS V14.01,2013-01-28 19:57:00,
2013-01-28 15:02:00,54.9,28.4,28.91,North,9,0.0,0.0,36,0.00,,CLR,0.00,VWS V14.01,2013-01-28 20:02:00,
2013-01-28 15:07:00,55.0,28.6,28.91,NNW,334,0.0,0.0,36,0.00,,BKN080,0.00,VWS V14.01,2013-01-28 20:07:00,
2013-01-28 15:12:00,55.4,28.9,28.91,WNW,292,0.0,0.0,36,0.00,,BKN080,0.00,VWS V14.01,2013-01-28 20:12:00,
2013-01-28 15:17:00,55.8,28.5,28.88,NW,322,0.0,0.0,35,0.00,,BKN080,0.00,VWS V14.01,2013-01-28 20:17:00,
2013-01-28 15:22:00,56.8,29.5,28.88,WNW,295,0.0,0.0,35,0.00,,BKN080,0.00,VWS V14.01,2013-01-28 20:22:00,
2013-01-28 15:27:00,57.2,29.1,28.88,NNW,332,0.0,0.0,34,0.00,,BKN080,0.00,VWS V14.01,2013-01-28 20:27:00,
2013-01-28 15:32:00,57.6,28.7,28.88,North,3,0.0,4.0,33,0.00,,BKN080,0.00,VWS V14.01,2013-01-28 20:32:00,
2013-01-28 15:37:00,57.6,28.7,28.88,WNW,293,0.0,0.0,33,0.00,,BKN080,0.00,VWS V14.01,2013-01-28 20:37:00,
2013-01-28 15:42:00,58.1,28.4,28.88,North,349,2.2,2.2,32,0.00,,BKN080,0.00,VWS V14.01,2013-01-28 20:42:00,
2013-01-28 15:47:00,57.6,28.0,28.88,NW,316,0.0,0.0,32,0.00,,BKN080,0.00,VWS V14.01,2013-01-28 20:47:00,
2013-01-28 15:53:00,57.2,27.6,28.88,North,357,0.0,0.0,32,0.00,,BKN080,0.00,VWS V14.01,2013-01-28 20:53:00,
2013-01-28 15:58:00,56.8,28.1,28.88,North,350,0.0,0.0,33,0.00,,BKN080,0.00,VWS V14.01,2013-01-28 20:58:00,
2013-01-28 16:03:00,57.2,28.4,28.88,NW,315,2.2,2.2,33,0.00,,FEW080,0.00,VWS V14.01,2013-01-28 21:03:00,
2013-01-28 16:08:00,57.2,28.4,28.88,WNW,296,3.6,3.6,33,0.00,,FEW080,0.00,VWS V14.01,2013-01-28 21:08:00,
2013-01-28 16:13:00,57.2,29.1,28.88,WNW,297,0.0,0.0,34,0.00,,FEW080,0.00,VWS V14.01,2013-01-28 21:13:00,
2013-01-28 16:18:00,57.0,28.2,28.88,NNW,327,3.1,3.1,33,0.00,,FEW080,0.00,VWS V14.01,2013-01-28 21:18:00,
2013-01-28 16:23:00,57.0,28.2,28.88,West,259,0.0,2.2,33,0.00,,FEW080,0.00,VWS V14.01,2013-01-28 21:23:00,
2013-01-28 16:28:00,56.8,28.8,28.88,NW,324,0.0,0.0,34,0.00,,FEW080,0.00,VWS V14.01,2013-01-28 21:28:00,
2013-01-28 16:33:00,57.0,28.2,28.88,SSE,159,0.0,0.0,33,0.00,,FEW080,0.00,VWS V14.01,2013-01-28 21:33:00,
2013-01-28 16:38:00,56.8,28.1,28.88,WNW,302,0.0,0.0,33,0.00,,FEW080,0.00,VWS V14.01,2013-01-28 21:38:00,
2013-01-28 16:44:00,56.8,28.1,28.88,NW,319,0.0,0.0,33,0.00,,FEW080,0.00,VWS V14.01,2013-01-28 21:44:00,
2013-01-28 16:49:00,56.5,28.5,28.88,NW,321,0.0,0.0,34,0.00,,FEW080,0.00,VWS V14.01,2013-01-28 21:49:00,
2013-01-28 16:54:00,56.3,29.0,28.88,WSW,243,3.6,3.6,35,0.00,,FEW080,0.00,VWS V14.01,2013-01-28 21:54:00,
2013-01-28 16:59:00,55.9,28.7,28.88,West,259,0.0,0.0,35,0.00,,FEW080,0.00,VWS V14.01,2013-01-28 21:59:00,
2013-01-28 17:04:00,55.2,28.1,28.88,West,259,0.0,0.0,35,0.00,,FEW080,0.00,VWS V14.01,2013-01-28 22:04:00,
2013-01-28 17:09:00,54.7,28.3,28.88,West,259,0.0,0.0,36,0.00,,FEW080,0.00,VWS V14.01,2013-01-28 22:09:00,
2013-01-28 17:14:00,54.1,27.8,28.88,West,259,0.0,2.2,36,0.00,,FEW080,0.00,VWS V14.01,2013-01-28 22:14:00,
2013-01-28 17:19:00,53.2,27.7,28.88,West,259,2.2,2.2,37,0.00,,FEW080,0.00,VWS V14.01,2013-01-28 22:19:00,
2013-01-28 17:24:00,52.5,27.0,28.88,West,259,0.0,0.0,37,0.00,,FEW080,0.00,VWS V14.01,2013-01-28 22:24:00,
2013-01-28 17:29:00,51.6,26.9,28.88,West,259,0.0,0.0,38,0.00,,FEW080,0.00,VWS V14.01,2013-01-28 22:29:00,
2013-01-28 17:34:00,50.9,26.8,28.91,West,259,0.0,0.0,39,0.00,,FEW080,0.00,VWS V14.01,2013-01-28 22:34:00,
2013-01-28 17:39:00,49.6,26.3,28.91,West,259,0.0,0.0,40,0.00,,FEW080,0.00,VWS V14.01,2013-01-28 22:39:00,
2013-01-28 17:44:00,48.7,26.1,28.91,West,259,0.0,0.0,41,0.00,,FEW080,0.00,VWS V14.01,2013-01-28 22:44:00,
2013-01-28 17:49:00,48.2,26.8,28.91,West,259,0.0,0.0,43,0.00,,FEW080,0.00,VWS V14.01,2013-01-28 22:49:00,
2013-01-28 17:54:00,47.7,26.8,28.91,West,259,0.0,0.0,44,0.00,,FEW080,0.00,VWS V14.01,2013-01-28 22:54:00,
2013-01-28 17:59:00,47.3,27.6,28.91,West,259,0.0,0.0,46,0.00,,FEW080,0.00,VWS V14.01,2013-01-28 22:59:00,
2013-01-28 18:04:00,47.1,27.9,28.91,West,259,0.0,0.0,47,0.00,,FEW080,0.00,VWS V14.01,2013-01-28 23:04:00,
2013-01-28 18:09:00,47.1,28.5,28.91,West,259,0.0,0.0,48,0.00,,FEW080,0.00,VWS V14.01,2013-01-28 23:09:00,
2013-01-28 18:14:00,47.1,28.5,28.91,West,259,0.0,0.0,48,0.00,,FEW080,0.00,VWS V14.01,2013-01-28 23:14:00,
2013-01-28 18:19:00,47.1,28.5,28.91,West,259,0.0,0.0,48,0.00,,FEW080,0.00,VWS V14.01,2013-01-28 23:19:00,
2013-01-28 18:24:00,46.6,28.0,28.91,West,259,0.0,0.0,48,0.00,,FEW080,0.00,VWS V14.01,2013-01-28 23:24:00,
2013-01-28 18:29:00,46.2,28.1,28.91,West,259,0.0,0.0,49,0.00,,FEW080,0.00,VWS V14.01,2013-01-28 23:29:00,
2013-01-28 18:34:00,45.7,27.6,28.91,West,259,0.0,0.0,49,0.00,,FEW080,0.00,VWS V14.01,2013-01-28 23:34:00,
2013-01-28 18:39:00,45.1,27.1,28.91,West,259,0.0,0.0,49,0.00,,FEW080,0.00,VWS V14.01,2013-01-28 23:39:00,
2013-01-28 18:44:00,44.8,27.3,28.91,West,259,0.0,0.0,50,0.00,,FEW080,0.00,VWS V14.01,2013-01-28 23:44:00,
2013-01-28 18:49:00,44.8,27.8,28.91,West,259,0.0,0.0,51,0.00,,FEW080,0.00,VWS V14.01,2013-01-28 23:49:00,
2013-01-28 18:54:00,44.8,27.8,28.91,West,259,0.0,0.0,51,0.00,,FEW080,0.00,VWS V14.01,2013-01-28 23:54:00,
2013-01-28 18:59:00,45.0,27.9,28.91,West,259,0.0,0.0,51,0.00,,FEW080,0.00,VWS V14.01,2013-01-28 23:59:00,
2013-01-28 19:04:00,45.0,28.4,28.91,West,259,0.0,0.0,52,0.00,,BKN110,0.00,VWS V14.01,2013-01-29 00:04:00,
2013-01-28 19:09:00,45.0,28.4,28.91,West,259,0.0,0.0,52,0.00,,BKN110,0.00,VWS V14.01,2013-01-29 00:09:00,
2013-01-28 19:14:00,45.1,28.6,28.91,West,259,0.0,0.0,52,0.00,,BKN110,0.00,VWS V14.01,2013-01-29 00:14:00,
2013-01-28 19:19:00,44.6,27.6,28.91,West,259,0.0,0.0,51,0.00,,BKN110,0.00,VWS V14.01,2013-01-29 00:19:00,
2013-01-28 19:24:00,44.4,27.9,28.91,West,259,0.0,0.0,52,0.00,,BKN110,0.00,VWS V14.01,2013-01-29 00:24:00,
2013-01-28 19:29:00,44.4,27.9,28.91,West,259,0.0,0.0,52,0.00,,BKN110,0.00,VWS V14.01,2013-01-29 00:29:00,
2013-01-28 19:34:00,44.6,28.5,28.91,West,259,0.0,0.0,53,0.00,,BKN110,0.00,VWS V14.01,2013-01-29 00:34:00,
2013-01-28 19:39:00,44.6,28.5,28.91,West,259,3.1,3.1,53,0.00,,BKN110,0.00,VWS V14.01,2013-01-29 00:39:00,
2013-01-28 19:44:00,44.6,29.0,28.91,West,259,0.0,0.0,54,0.00,,BKN110,0.00,VWS V14.01,2013-01-29 00:44:00,
2013-01-28 19:49:00,44.6,29.9,28.91,West,259,0.0,0.0,56,0.00,,BKN110,0.00,VWS V14.01,2013-01-29 00:49:00,
2013-01-28 19:54:00,45.0,30.2,28.91,West,259,0.0,0.0,56,0.00,,BKN110,0.00,VWS V14.01,2013-01-29 00:54:00,
2013-01-28 19:59:00,44.8,30.1,28.91,SW,227,0.0,0.0,56,0.00,,BKN110,0.00,VWS V14.01,2013-01-29 00:59:00,
2013-01-28 20:04:00,45.0,30.7,28.91,SW,227,0.0,0.0,57,0.00,,BKN075,0.00,VWS V14.01,2013-01-29 01:04:00,
2013-01-28 20:10:00,44.8,30.9,28.91,SW,227,0.0,0.0,58,0.00,,BKN075,0.00,VWS V14.01,2013-01-29 01:10:00,
2013-01-28 20:15:00,44.6,31.2,28.91,West,268,0.0,0.0,59,0.00,,BKN075,0.00,VWS V14.01,2013-01-29 01:15:00,
2013-01-28 20:20:00,44.6,32.0,28.91,NNW,328,0.0,0.0,61,0.00,,BKN075,0.00,VWS V14.01,2013-01-29 01:20:00,
2013-01-28 20:25:00,44.6,32.0,28.91,SW,231,0.0,0.0,61,0.00,,BKN075,0.00,VWS V14.01,2013-01-29 01:25:00,
2013-01-28 20:30:00,44.1,31.9,28.91,SSW,211,0.0,0.0,62,0.00,,BKN075,0.00,VWS V14.01,2013-01-29 01:30:00,
2013-01-28 20:35:00,44.1,32.7,28.91,SSW,211,0.0,0.0,64,0.00,,BKN075,0.00,VWS V14.01,2013-01-29 01:35:00,
2013-01-28 20:40:00,44.2,33.2,28.91,SE,130,3.6,3.6,65,0.00,,BKN075,0.00,VWS V14.01,2013-01-29 01:40:00,
2013-01-28 20:45:00,44.2,33.2,28.91,SE,130,0.0,0.0,65,0.00,,BKN075,0.00,VWS V14.01,2013-01-29 01:45:00,
2013-01-28 20:50:00,44.2,33.6,28.88,NNE,22,3.6,3.6,66,0.00,,BKN075,0.00,VWS V14.01,2013-01-29 01:50:00,
2013-01-28 20:55:00,44.4,33.4,28.88,NE,36,0.0,0.0,65,0.00,,BKN075,0.00,VWS V14.01,2013-01-29 01:55:00,
2013-01-28 21:00:00,44.4,33.4,28.88,NNE,28,0.0,2.7,65,0.00,,BKN075,0.00,VWS V14.01,2013-01-29 02:00:00,
2013-01-28 21:05:00,44.4,33.4,28.88,WSW,245,0.0,0.0,65,0.00,,BKN110,0.00,VWS V14.01,2013-01-29 02:05:00,
2013-01-28 21:10:00,44.6,34.0,28.88,WNW,302,0.0,0.0,66,0.00,,BKN110,0.00,VWS V14.01,2013-01-29 02:10:00,
2013-01-28 21:16:00,44.6,33.2,28.88,SW,224,0.0,0.0,64,0.00,,BKN110,0.00,VWS V14.01,2013-01-29 02:16:00,
2013-01-28 21:21:00,45.0,32.7,28.88,West,262,2.7,2.7,62,0.00,,BKN110,0.00,VWS V14.01,2013-01-29 02:21:00,
2013-01-28 21:26:00,44.8,31.8,28.88,WNW,298,0.0,0.0,60,0.00,,BKN110,0.00,VWS V14.01,2013-01-29 02:26:00,
2013-01-28 21:31:00,45.0,32.3,28.88,ESE,110,4.0,4.0,61,0.00,,BKN110,0.00,VWS V14.01,2013-01-29 02:31:00,
2013-01-28 21:36:00,45.0,31.9,28.88,West,278,2.7,2.7,60,0.00,,BKN110,0.00,VWS V14.01,2013-01-29 02:36:00,
2013-01-28 21:41:00,45.1,32.5,28.88,West,281,3.1,3.1,61,0.00,,BKN110,0.00,VWS V14.01,2013-01-29 02:41:00,
2013-01-28 21:46:00,46.9,32.1,28.88,NE,50,3.6,3.6,56,0.00,,BKN110,0.00,VWS V14.01,2013-01-29 02:46:00,
2013-01-28 21:51:00,49.1,31.8,28.88,SW,230,4.0,4.0,51,0.00,,BKN110,0.00,VWS V14.01,2013-01-29 02:51:00,
2013-01-28 21:56:00,48.2,30.9,28.88,NNW,346,2.2,2.2,51,0.00,,BKN110,0.00,VWS V14.01,2013-01-29 02:56:00,
2013-01-28 22:01:00,49.8,31.9,28.88,WNW,302,2.7,2.7,50,0.00,,BKN110,0.00,VWS V14.01,2013-01-29 03:01:00,
2013-01-28 22:06:00,53.1,33.9,28.88,SW,231,4.9,7.6,48,0.00,,BKN100,0.00,VWS V14.01,2013-01-29 03:06:00,
2013-01-28 22:11:00,54.9,31.6,28.88,West,260,7.6,8.3,41,0.00,,BKN100,0.00,VWS V14.01,2013-01-29 03:11:00,
2013-01-28 22:16:00,56.3,29.7,28.88,ESE,115,2.7,2.7,36,0.00,,BKN100,0.00,VWS V14.01,2013-01-29 03:16:00,
2013-01-28 22:21:00,56.3,32.9,28.88,South,190,8.3,8.3,41,0.00,,BKN100,0.00,VWS V14.01,2013-01-29 03:21:00,
2013-01-28 22:27:00,57.0,31.7,28.88,SW,230,3.6,3.6,38,0.00,,BKN100,0.00,VWS V14.01,2013-01-29 03:27:00,
2013-01-28 22:32:00,58.3,32.2,28.88,WSW,253,8.7,8.7,37,0.00,,BKN100,0.00,VWS V14.01,2013-01-29 03:32:00,
2013-01-28 22:37:00,58.8,32.0,28.88,WSW,237,9.6,9.6,36,0.00,,BKN100,0.00,VWS V14.01,2013-01-29 03:37:00,
2013-01-28 22:42:00,58.8,32.0,28.88,WSW,254,11.0,11.0,36,0.00,,BKN100,0.00,VWS V14.01,2013-01-29 03:42:00,
2013-01-28 22:47:00,58.8,32.0,28.88,West,261,9.6,9.6,36,0.00,,BKN100,0.00,VWS V14.01,2013-01-29 03:47:00,
2013-01-28 22:52:00,58.8,32.0,28.88,SW,233,8.1,8.1,36,0.00,,BKN100,0.00,VWS V14.01,2013-01-29 03:52:00,
2013-01-28 22:57:00,59.0,32.1,28.88,West,268,7.6,8.3,36,0.00,,BKN100,0.00,VWS V14.01,2013-01-29 03:57:00,
2013-01-28 23:02:00,59.2,32.3,28.88,SW,227,8.1,8.3,36,0.00,,SCT043,0.00,VWS V14.01,2013-01-29 04:02:00,
2013-01-28 23:07:00,59.2,32.3,28.88,SW,220,7.6,7.6,36,0.00,,SCT043,0.00,VWS V14.01,2013-01-29 04:07:00,